Content
SEND FEEDBACK

Daily
Averages
Monthly
Summary
Canada

VANCOUVER, BRITISH COLUMBIA


Home > North America > Canada > British Columbia
Elevation: 7 feet     Latitude: 49 11N     Longitude: 123 10W

WEATHER
 
SELECT A DAY
Number of Records: 249,213;   Date Range: 5/15/97 - 4/23/14
 
SHARE

PRINT THIS DATA

[ ← Previous Day ]
WEATHER ALMANAC - JANUARY 22, 2013
[ Next Day → ]
[ °C ]   °F
Weather ElementAverageHighLow
Temperature36.3 °F37.4 °F (10:35 am)33.8 °F (5:35 am)
Dewpoint33.5 °F35.6 °F (12:35 am)32 °F (5:35 am)
Humidity89.9 %100 % (12:35 am)81 % (10:35 am)
Barometer30.03 in30.13 in (12:35 am)29.91 in (9:15 pm)
Wind Speed0.2 mph4.6 mph (12:35 pm)
Weather ElementAverage
Visibility8.3 mi
Wind DirectionNNE (15.9 °)

Weather ElementTotal
Precipitation---
Heating Degree Days29.4 (Base 65)
Averaged from 68 records on January 22, 2013
WEATHER CONDITIONS BREAKOUT
WIND DIRECTION BREAKOUT
WEATHER BY HOUR - JANUARY 22, 2013
[ °C ]   °F
Local TimeTemperatureDewpointHumidityBarometerVisibilityWind DirectionWind SpeedGust SpeedPrecipitationEventsConditions
12:35 AM35.6 °F35.6 °F100 %30.13 in4.0 miCalmOvercast
12:55 AM35.6 °F35.6 °F100 %30.13 in5.0 miCalmOvercast
1:15 AM35.6 °F35.6 °F100 %30.13 in5.0 miCalmOvercast
1:35 AM35.6 °F35.6 °F100 %30.13 in5.0 miCalmOvercast
1:55 AM35.6 °F33.8 °F93 %30.13 in5.0 miCalmOvercast
2:15 AM35.6 °F33.8 °F93 %30.12 in5.0 miCalmOvercast
2:35 AM35.6 °F35.6 °F100 %30.13 in5.0 miCalmOvercast
2:55 AM35.6 °F35.6 °F100 %30.12 in4.0 miCalmOvercast
3:15 AM35.6 °F33.8 °F93 %30.12 in5.0 miCalmOvercast
3:35 AM35.6 °F33.8 °F93 %30.12 in6.0 miCalmOvercast
3:55 AM35.6 °F33.8 °F93 %30.12 in5.0 miCalmOvercast
4:15 AM35.6 °F33.8 °F93 %30.12 in6.0 miCalmOvercast
4:35 AM35.6 °F33.8 °F93 %30.10 in5.0 miCalmOvercast
4:55 AM35.6 °F33.8 °F93 %30.10 in5.0 miCalmOvercast
5:15 AM35.6 °F33.8 °F93 %30.10 in6.0 miCalmOvercast
5:35 AM33.8 °F32.0 °F93 %30.09 in7.0 miCalmOvercast
5:55 AM35.6 °F33.8 °F93 %30.10 in7.0 miCalmOvercast
6:15 AM35.6 °F33.8 °F93 %30.10 in8.0 miCalmOvercast
6:35 AM33.8 °F32.0 °F93 %30.09 in9.0 miCalmOvercast
6:55 AM33.8 °F32.0 °F93 %30.09 in8.0 miCalmOvercast
7:15 AM33.8 °F32.0 °F93 %30.08 in10.0 miCalmOvercast
7:35 AM33.8 °F32.0 °F93 %30.08 in10.0 miCalmOvercast
7:55 AM33.8 °F32.0 °F93 %30.08 in10.0 miCalmOvercast
8:15 AM33.8 °F32.0 °F93 %30.07 in10.0 miCalmOvercast
8:55 AM35.6 °F32.0 °F87 %30.08 in8.0 miCalmOvercast
9:15 AM35.6 °F32.0 °F87 %30.07 in10.0 miNNW (340°)3.5 mphOvercast
9:35 AM35.6 °F32.0 °F87 %30.08 in9.0 miCalmMostly Cloudy
9:55 AM35.6 °F33.8 °F93 %30.07 in9.0 miCalmMostly Cloudy
10:15 AM35.6 °F32.0 °F87 %30.07 in10.0 miCalmMostly Cloudy
10:35 AM37.4 °F32.0 °F81 %30.07 in9.0 miCalmPartly Cloudy
10:55 AM37.4 °F32.0 °F81 %30.07 in10.0 miCalmClear
11:15 AM37.4 °F32.0 °F81 %30.07 in10.0 miCalmClear
11:35 AM37.4 °F32.0 °F81 %30.07 in10.0 miCalmClear
12:15 PM37.4 °F32.0 °F81 %30.05 in10.0 miCalmClear
12:35 PM37.4 °F32.0 °F81 %30.04 in10.0 miNorth (360°)4.6 mphClear
12:55 PM37.4 °F32.0 °F81 %30.03 in10.0 miNorth (360°)3.5 mphClear
1:15 PM37.4 °F32.0 °F81 %30.02 in10.0 miCalmClear
1:35 PM37.4 °F32.0 °F81 %30.01 in10.0 miNNE (20°)4.6 mphClear
1:55 PM37.4 °F32.0 °F81 %30.01 in10.0 miCalmClear
2:15 PM37.4 °F32.0 °F81 %29.99 in10.0 miCalmClear
2:35 PM37.4 °F32.0 °F81 %29.99 in10.0 miCalmClear
2:55 PM37.4 °F32.0 °F81 %29.98 in10.0 miCalmClear
3:15 PM37.4 °F32.0 °F81 %29.98 in10.0 miCalmClear
3:35 PM37.4 °F32.0 °F81 %29.97 in10.0 miCalmClear
3:55 PM37.4 °F32.0 °F81 %29.98 in10.0 miCalmClear
4:15 PM37.4 °F32.0 °F81 %29.96 in10.0 miCalmClear
4:35 PM37.4 °F32.0 °F81 %29.97 in10.0 miCalmClear
4:55 PM37.4 °F32.0 °F81 %29.97 in10.0 miCalmClear
5:15 PM37.4 °F32.0 °F81 %29.96 in10.0 miCalmClear
5:35 PM35.6 °F33.8 °F93 %29.95 in10.0 miCalmClear
5:55 PM35.6 °F33.8 °F93 %29.95 in9.0 miCalmClear
6:15 PM37.4 °F35.6 °F93 %29.95 in10.0 miCalmClear
6:35 PM37.4 °F33.8 °F87 %29.95 in10.0 miCalmClear
6:55 PM35.6 °F33.8 °F93 %29.94 in8.0 miCalmClear
7:15 PM35.6 °F35.6 °F100 %29.93 in8.0 miCalmClear
7:35 PM35.6 °F35.6 °F100 %29.92 in7.0 miCalmClear
7:55 PM37.4 °F35.6 °F93 %29.92 in8.0 miCalmClear
8:35 PM37.4 °F35.6 °F93 %29.93 in7.0 miCalmClear
8:55 PM37.4 °F35.6 °F93 %29.93 in8.0 miCalmClear
9:15 PM37.4 °F35.6 °F93 %29.91 in9.0 miCalmClear
9:35 PM37.4 °F35.6 °F93 %29.91 in10.0 miCalmClear
9:55 PM37.4 °F35.6 °F93 %29.91 in9.0 miCalmClear
10:15 PM37.4 °F35.6 °F93 %29.91 in9.0 miCalmClear
10:35 PM37.4 °F35.6 °F93 %29.91 in7.0 miCalmClear
10:55 PM37.4 °F35.6 °F93 %29.91 in8.0 miCalmClear
11:15 PM37.4 °F35.6 °F93 %29.92 in7.0 miCalmClear
11:35 PM37.4 °F35.6 °F93 %29.92 in9.0 miCalmClear
11:55 PM37.4 °F35.6 °F93 %29.92 in9.0 miCalmPartly Cloudy
Hourly data recorded from CZBB, located miles away from Vancouver, British Columbia







STORIES FROM OUR PARTNERS